Pecos, TX

10:01 PM CST on November 21, 2017 (GMT -0600)
Pecos Municipal

Weather History for KPEQ - February, 2013

Change the Weather History Date:

Wednesday, February 13, 2013

  Actual Average Record
Temperature  
Mean Temperature 42 °F -  
Max Temperature 61 °F 68 °F 90 °F (1962)
Min Temperature 22 °F 31 °F 16 °F (1948)
Degree Days  
Heating Degree Days 24    
Moisture  
Dew Point 15 °F    
Average Humidity 48    
Maximum Humidity 76    
Minimum Humidity 13    
Precipitation  
Precipitation 0.00 in - - ()
Sea Level Pressure  
Sea Level Pressure 30.09 in    
Wind  
Wind Speed 5 mph (WSW)    
Max Wind Speed 16 mph    
Max Gust Speed 20 mph    
Visibility 10 miles    
Events      
Averages and records for this station are not official NWS values.
T = Trace of Precipitation, MM = Missing Value Source: NWS Daily Summary

Daily Weather History Graph

Daily Weather History Graph

Search for Another Location

Airport or City:

Trip Planner

Search our weather history database for the weather conditions in past years. The results will help you decide how hot, cold, wet, or windy it might be!

Date:

Astronomy

Feb. 13, 2013 Rise Set
Actual Time 7:37 AM CST 6:39 PM CST
Civil Twilight 7:12 AM CST 7:04 PM CST
Nautical Twilight 6:43 AM CST 7:33 PM CST
Astronomical Twilight 6:15 AM CST 8:01 PM CST
Moon 9:25 AM CST (2/13) 10:24 PM CST (2/13)
Length of Visible Light 11h 52m
Length of Day
11h 02m
Waxing Crescent, 14% of the Moon is Illuminated
Feb 13
Waxing Crescent
Feb 17
First Quarter
Feb 25
Full
Mar 4
Last Quarter
Mar 11
New

Hourly Weather History & Observations

Time (CST) Temp. Windchill Dew Point Humidity Pressure Visibility Wind Dir Wind Speed Gust Speed Precip Events Conditions
12:15 AM 32.5 °F 26.2 °F 22.5 °F 66% 30.15 in 10.0 mi WSW 6.9 mph - N/A   Clear
12:35 AM 32.4 °F 26.9 °F 22.1 °F 66% 30.15 in 10.0 mi WSW 5.8 mph - N/A   Clear
12:55 AM 31.6 °F 28.3 °F 21.7 °F 67% 30.15 in 10.0 mi SSW 3.5 mph - N/A   Clear
1:15 AM 30.2 °F 25.4 °F 21.0 °F 69% 30.15 in 10.0 mi West 4.6 mph - N/A   Clear
1:35 AM 29.7 °F 23.7 °F 20.3 °F 68% 30.15 in 10.0 mi West 5.8 mph - N/A   Clear
1:55 AM 29.5 °F 24.5 °F 20.3 °F 69% 30.15 in 10.0 mi West 4.6 mph - N/A   Clear
2:15 AM 28.6 °F - 19.8 °F 70% 30.15 in 10.0 mi Calm Calm - N/A   Clear
2:35 AM 26.6 °F - 19.0 °F 73% 30.16 in 10.0 mi Calm Calm - N/A   Clear
2:55 AM 24.8 °F 19.1 °F 18.1 °F 76% 30.16 in 10.0 mi SSE 4.6 mph - N/A   Clear
3:15 AM 26.1 °F 21.9 °F 18.5 °F 73% 30.15 in 10.0 mi West 3.5 mph - N/A   Clear
3:35 AM 25.7 °F - 18.5 °F 74% 30.15 in 10.0 mi Calm Calm - N/A   Clear
3:55 AM 26.4 °F - 18.3 °F 71% 30.14 in 10.0 mi Calm Calm - N/A   Clear
4:15 AM 26.2 °F - 18.9 °F 74% 30.14 in 10.0 mi Calm Calm - N/A   Clear
4:35 AM 26.6 °F 22.6 °F 19.6 °F 75% 30.13 in 10.0 mi South 3.5 mph - N/A   Clear
4:55 AM 25.7 °F 20.1 °F 19.0 °F 76% 30.13 in 10.0 mi SW 4.6 mph - N/A   Clear
5:15 AM 25.9 °F 19.2 °F 18.9 °F 75% 30.14 in 10.0 mi WSW 5.8 mph - N/A   Clear
5:35 AM 25.3 °F 18.5 °F 17.6 °F 72% 30.14 in 10.0 mi WSW 5.8 mph - N/A   Clear
5:55 AM 25.0 °F 17.1 °F 16.3 °F 70% 30.15 in 10.0 mi WSW 6.9 mph - N/A   Clear
6:15 AM 24.8 °F 16.9 °F 15.6 °F 68% 30.15 in 10.0 mi West 6.9 mph - N/A   Clear
6:35 AM 25.3 °F 18.5 °F 14.9 °F 65% 30.15 in 10.0 mi West 5.8 mph - N/A   Clear
6:55 AM 23.9 °F 18.0 °F 14.7 °F 68% 30.15 in 10.0 mi WSW 4.6 mph - N/A   Clear
7:15 AM 23.5 °F 15.4 °F 15.3 °F 71% 30.16 in 10.0 mi WSW 6.9 mph - N/A   Clear
7:35 AM 23.5 °F 16.4 °F 15.4 °F 71% 30.15 in 10.0 mi West 5.8 mph - N/A   Clear
7:55 AM 22.6 °F - 14.9 °F 72% 30.15 in 10.0 mi Calm Calm - N/A   Clear
8:15 AM 23.9 °F - 16.5 °F 73% 30.16 in 10.0 mi Calm Calm - N/A   Clear
8:35 AM 26.6 °F - 18.3 °F 71% 30.16 in 10.0 mi Calm Calm - N/A   Clear
8:55 AM 29.7 °F - 20.3 °F 68% 30.16 in 10.0 mi Calm Calm - N/A   Clear
9:15 AM 32.7 °F - 21.6 °F 64% 30.16 in 10.0 mi Calm Calm - N/A   Clear
11:15 AM 48.7 °F - 17.8 °F 29% 30.15 in 10.0 mi WSW 4.6 mph - N/A   Clear
12:55 PM 57.2 °F - 15.3 °F 19% 30.09 in 10.0 mi Calm Calm - N/A   Clear
1:15 PM 59.2 °F - 12.2 °F 16% 30.08 in 10.0 mi WSW 13.8 mph 17.3 mph N/A   Clear
1:35 PM 60.1 °F - 10.6 °F 14% 30.07 in 10.0 mi WSW 11.5 mph - N/A   Clear
2:15 PM 60.4 °F - 10.2 °F 14% 30.04 in 10.0 mi WSW 13.8 mph 19.6 mph N/A   Clear
3:15 PM 61.5 °F - 10.2 °F 13% 30.01 in 10.0 mi West 10.4 mph 17.3 mph N/A   Clear
3:35 PM 61.7 °F - 10.9 °F 14% 30.00 in 10.0 mi West 16.1 mph - N/A   Clear
3:55 PM 61.9 °F - 11.1 °F 14% 29.99 in 10.0 mi WSW 8.1 mph - N/A   Clear
4:35 PM 61.9 °F - 12.0 °F 14% 29.98 in 10.0 mi WSW 9.2 mph 18.4 mph N/A   Clear
5:15 PM 61.7 °F - 11.7 °F 14% 29.98 in 10.0 mi West 9.2 mph - N/A   Clear
5:35 PM 61.3 °F - 11.8 °F 14% 29.98 in 10.0 mi West 12.7 mph - N/A   Clear
5:55 PM 60.6 °F - 12.0 °F 15% 29.98 in 10.0 mi West 12.7 mph - N/A   Clear
6:35 PM 55.8 °F - 10.4 °F 16% 29.98 in 10.0 mi West 6.9 mph - N/A   Clear
6:55 PM 51.8 °F - 9.5 °F 18% 29.98 in 10.0 mi West 8.1 mph - N/A   Clear
8:15 PM 48.0 °F - 8.6 °F 20% 30.00 in 10.0 mi WSW 10.4 mph - N/A   Clear
8:55 PM 43.2 °F 37.9 °F 9.3 °F 25% 30.02 in 10.0 mi SW 9.2 mph - N/A   Clear
9:15 PM 42.8 °F 37.5 °F 9.9 °F 26% 30.02 in 10.0 mi SW 9.2 mph - N/A   Clear
9:55 PM 40.5 °F 35.1 °F 9.5 °F 28% 30.03 in 10.0 mi WSW 8.1 mph - N/A   Clear
10:15 PM 37.9 °F 32.1 °F 9.7 °F 31% 30.03 in 10.0 mi SW 8.1 mph - N/A   Clear
10:35 PM 38.8 °F 33.2 °F 10.2 °F 31% 30.03 in 10.0 mi SW 8.1 mph - N/A   Clear
11:15 PM 41.0 °F 35.2 °F 10.0 °F 28% 30.03 in 10.0 mi SW 9.2 mph - N/A   Clear
11:35 PM 39.2 °F 33.0 °F 9.5 °F 29% 30.03 in 10.0 mi SW 9.2 mph - N/A   Clear
11:55 PM 37.9 °F 32.7 °F 9.9 °F 31% 30.03 in 10.0 mi SW 6.9 mph - N/A   Clear